User: anonymous   Login
Location: Camp Creek
(33.9000°N, 111.8167°W)
Time: 02:58:19
(UTC-07:00)
Language:

Cosmos 2322 Rocket - Orbit

View from above orbital plane
View from above orbital plane
View from above satellite
View from above satellite

Ground track
Ground track

The orbit data is extracted from the following two-line orbital elements,

1 23705U 95058B   17017.32066033 -.00000234  00000-0 -96181-4 0  9993
2 23705  71.0210 345.5592 0012414 179.1735 180.9410 14.15091778 95840
Epoch (UTC): 17 January 2017 07:41:45
Eccentricity: 0.0012414
inclination: 71.0210°
perigee height: 833 km
apogee height: 851 km
right ascension of ascending node: 345.5592°
argument of perigee: 179.1735°
revolutions per day: 14.15091778
mean anomaly at epoch: 180.9410°
orbit number at epoch: 9584

The dashed part of the orbit path shows where the satellite is in the earth's shadow,  

DLR